Location: Castrojimeno
(41.3966°N, 3.8473°W)
Time: 08:41:22
(UTC+00:00)

ALOS 2 - Pass Details

Date: 15 May 2026
Orbit: 630 x 632 km, 97.9° (Epoch: 6 June)

Event Time Altitude Azimuth Distance (km) Brightness Sun altitude
Exits shadow 22:53:59 24° 56° (NE) 1,320 4.3 -26.9°
Drops below altitude 10° 22:57:00 10° 14° (NNE) 2,021 5.9 -27.1°
Sets 22:59:31 0° 1° (N) 2,933 7.1 -27.3°
